Location: Bonnesvalyn
(49.1218°N, 3.3177°E)
Time: 07:01:21
(UTC+00:00)

CZ-4B R/B - Pass Details

Date: 09 February 2023
Orbit: 809 x 881 km, 99.0° (Epoch: 24 March)

Event Time Altitude Azimuth Distance (km) Brightness Sun altitude
Rises 18:08:53 0° 150° (SSE) 3,353 6.1 -12.3°
Reaches altitude 10° 18:11:14 10° 146° (SSE) 2,434 5.3 -12.6°
Maximum altitude 18:16:31 58° 69° (ENE) 976 3.2 -13.5°
Drops below altitude 10° 18:21:57 10° 351° (N) 2,498 5.7 -14.4°
Sets 18:24:22 0° 348° (NNW) 3,449 6.5 -14.8°
